Retour au catalogue

GOES 2 AKM

ActifMEO
NORAD 20799·ROCKET BODY·🇺🇸 United States

Lancé Jun 16, 1977 depuis Cape Canaveral Space Force Station

Loading…

Prochains Passages (prochaines 24 heures)

TLE

FraisSource: Space-Track

Époque: Sep 14, 2026, 21:06 UTC

1 20799U 77048G   26257.87962056 -.00000389  00000-0  00000-0 0  9999
2 20799   3.8768 274.2208 0208063 112.0428  20.7456  1.00582427118736

Suivez GOES 2 AKM en temps réel avec AllMySat

Download on the App Store